Wind_Speed
15 15 15 15 16 16 17 17 17 17 18 19 19 20 20 20 19 19 19 19 19 19 19 20 20 20 20 20 21 21 21 21 21 22 22 23 23 22
16 17 17 17 17 17 18 18 19 19 19 20 20 20 20 20 20 20 19 19 20 20 20 21 20 20 20 21 21 21 22 22 22 23 22 22 23 23
18 18 18 18 18 19 19 20 20 21 21 21 22 22 21 21 20 20 20 20 20 20 20 20 21 21 21 21 21 21 22 22 23 23 23 23 23 23
19 19 19 19 20 20 21 22 22 22 22 21 22 22 22 22 21 21 21 20 20 20 20 21 21 21 21 22 22 22 22 22 22 22 22 22 23 23
20 20 20 20 20 21 22 22 22 22 22 22 22 22 22 22 21 21 21 20 20 21 21 22 22 22 23 23 23 23 22 22 22 23 23 23 23 23
21 21 21 22 22 22 22 23 23 23 23 23 23 22 22 22 21 21 21 21 22 21 22 22 22 23 23 24 24 23 23 23 23 23 23 23 23 24
22 23 23 23 24 24 24 24 23 23 23 24 23 23 23 22 22 22 22 22 22 22 22 22 23 23 24 24 24 24 24 24 23 23 23 23 23 23
24 24 24 24 25 25 25 25 25 25 24 25 25 25 25 24 23 23 23 23 23 23 23 23 23 24 24 24 24 24 24 24 24 23 23 22 22 22
25 25 26 26 26 26 26 26 26 26 26 26 27 27 26 25 25 25 25 25 25 24 24 24 25 25 25 25 25 25 24 24 24 24 24 24 23 23
26 26 27 27 27 27 27 27 27 27 27 27 28 28 27 27 27 26 26 26 26 26 26 26 25 25 26 25 25 25 25 24 24 25 25 25 25 24
27 27 28 27 27 28 28 28 28 28 28 28 28 27 28 28 28 28 27 27 27 27 27 27 26 26 26 26 26 25 25 25 25 25 25 25 26 25
28 28 28 28 28 29 29 29 29 29 29 28 28 28 29 29 29 29 28 28 28 27 27 27 27 27 26 26 26 25 25 25 26 26 26 26 26 26
29 29 29 29 30 30 30 30 30 30 30 30 30 29 30 30 30 30 29 29 28 28 28 28 28 27 27 26 26 26 26 25 25 25 24 24 25 26
30 30 30 30 31 31 31 31 31 31 30 30 30 30 30 30 30 30 30 29 29 28 28 28 28 27 27 27 27 26 26 26 26 25 25 24 25 25
31 31 31 31 31 32 32 31 31 31 31 30 31 30 30 30 30 30 29 28 29 29 29 29 28 28 28 28 27 27 27 27 26 25 25 25 25 25
31 31 32 32 32 32 32 32 32 32 31 31 32 32 31 31 31 30 30 29 29 29 29 29 28 28 28 28 27 27 26 26 25 26 26 26 26 26
33 33 33 33 32 31 32 32 32 32 32 32 32 32 32 31 31 31 30 30 30 30 29 29 29 28 29 29 28 27 27 27 26 26 27 27 27 27
34 33 33 33 32 32 32 32 32 32 33 33 33 33 32 32 32 32 31 31 31 31 30 30 30 29 29 29 29 29 28 28 28 28 28 27 28 28
35 34 34 33 33 33 33 33 33 33 33 33 33 33 34 33 33 33 32 32 33 33 32 31 31 31 30 30 30 30 30 29 29 29 28 28 28 28
35 35 34 34 34 34 34 34 34 34 34 34 34 34 34 34 34 33 33 33 33 34 34 34 33 32 31 31 31 31 30 30 30 30 29 29 29 29
35 35 35 35 36 35 36 36 36 35 35 35 35 35 35 35 34 34 33 33 33 33 34 34 34 34 33 33 32 32 32 31 31 31 30 30 29 29
36 36 36 37 37 37 37 37 37 37 36 37 36 35 35 36 35 34 34 33 33 33 33 33 34 34 33 33 33 32 33 33 32 31 31 31 31 30
36 36 37 37 37 38 38 38 38 38 38 37 36 36 36 36 35 34 34 34 34 34 34 33 33 34 33 33 33 33 32 32 32 32 32 32 33 33
Wind_Direction
309 307 304 302 303 300 298 298 296 296 297 298 298 298 298 297 297 295 294 294 294 293 294 293 293 291 289 287 285 282 279 278 277 275 275 274 273 273
309 309 306 302 301 302 301 298 296 296 296 298 299 299 299 299 298 295 294 294 295 294 295 295 293 291 290 288 286 285 282 279 276 275 277 277 274 272
305 306 306 303 301 302 301 299 297 294 294 296 298 299 298 297 296 294 294 295 294 294 295 294 293 291 290 289 286 286 285 283 279 277 276 276 275 272
302 303 303 303 302 301 301 301 299 296 295 296 296 296 297 295 294 295 294 295 294 293 294 294 292 290 290 290 287 287 286 283 280 279 278 277 276 273
302 301 303 304 303 303 302 302 300 297 295 296 296 296 297 296 294 294 294 294 294 294 294 294 293 290 289 289 288 287 285 284 282 280 278 276 277 275
301 300 301 302 301 302 302 301 301 299 298 298 298 297 297 296 295 294 293 293 293 293 294 294 292 291 288 288 288 286 284 284 283 281 278 276 276 275
302 302 301 301 301 300 299 299 300 299 299 300 299 299 297 295 294 294 293 292 292 293 293 292 291 290 288 287 287 285 283 282 282 281 279 278 276 275
302 301 300 299 300 299 298 298 298 298 297 297 297 297 296 294 292 293 293 293 292 292 292 291 291 289 288 287 286 285 284 282 280 279 278 277 275 274
303 301 300 299 298 297 296 297 297 297 296 295 295 295 294 292 291 291 291 292 293 293 292 291 290 290 288 285 284 284 284 282 280 278 276 275 275 275
303 302 301 298 297 297 297 297 297 296 295 293 294 293 291 290 291 291 291 291 292 294 295 294 292 291 289 286 283 281 281 280 279 278 276 274 272 272
302 301 301 299 298 297 297 296 295 295 294 294 293 292 292 291 291 290 289 289 290 290 292 293 292 291 289 287 284 282 280 279 279 278 277 273 271 269
300 299 298 298 297 297 296 295 294 294 293 292 292 292 291 291 290 291 290 289 288 289 289 289 289 289 288 286 283 281 281 280 279 279 276 273 271 269
298 297 296 297 297 297 297 296 295 294 292 291 292 292 291 290 291 290 289 289 289 289 288 287 286 287 286 284 282 281 282 282 280 279 275 274 272 270
297 297 296 295 295 296 297 296 296 296 294 292 291 292 291 290 290 289 288 288 288 287 288 286 285 286 285 284 281 280 280 282 280 278 274 272 271 271
297 297 297 296 296 296 296 295 296 296 295 294 293 292 291 290 288 288 287 286 286 285 285 285 285 285 284 283 282 279 277 278 278 275 274 273 272 271
297 297 297 296 296 296 295 295 295 296 295 294 293 292 291 289 288 287 285 283 283 283 284 284 284 284 282 281 281 279 277 277 276 274 272 271 271 270
297 298 298 295 295 296 296 296 296 296 295 295 295 293 291 289 287 286 285 283 283 283 284 285 284 283 283 280 279 278 278 275 275 274 273 272 271 269
295 297 298 296 294 294 294 295 295 295 296 296 294 292 291 291 288 286 284 283 282 282 282 282 282 280 280 279 278 276 275 275 274 275 274 272 271 270
294 296 297 296 295 294 294 294 294 295 296 295 294 293 291 290 289 287 284 282 281 281 280 279 279 279 278 277 276 274 273 273 274 275 274 272 271 270
293 294 295 295 295 294 294 294 294 293 293 293 293 292 292 291 289 289 286 283 281 281 280 279 279 278 276 274 272 272 272 272 272 273 272 272 271 270
292 294 294 294 295 295 295 294 294 293 291 291 292 292 291 290 289 288 287 286 284 282 280 279 277 276 275 273 272 272 271 270 270 271 269 268 269 269
292 293 294 294 294 294 295 295 294 292 290 290 291 291 290 290 289 288 287 286 284 283 282 279 277 275 275 275 273 272 271 269 268 268 268 268 268 267
293 293 293 293 293 293 293 293 293 292 290 290 290 289 288 288 288 287 286 286 284 283 282 280 278 275 275 274 273 271 270 268 268 268 268 268 267 267
Height
5873 5872 5870 5869 5868 5867 5866 5865 5864 5863 5862 5861 5859 5858 5856 5854 5853 5852 5851 5849 5848 5847 5846 5845 5844 5843 5842 5841 5841 5840 5840 5840 5839 5839 5839 5839 5839 5839
5870 5868 5867 5866 5864 5863 5862 5861 5859 5858 5857 5856 5854 5853 5851 5850 5848 5847 5845 5844 5843 5841 5840 5839 5838 5838 5837 5836 5835 5834 5834 5833 5833 5833 5833 5833 5833 5833
5866 5864 5863 5861 5860 5859 5857 5856 5854 5853 5852 5851 5849 5847 5846 5844 5843 5841 5839 5838 5837 5836 5835 5834 5833 5832 5831 5830 5829 5828 5827 5827 5827 5827 5826 5826 5826 5826
5862 5860 5858 5857 5855 5854 5852 5851 5849 5847 5846 5845 5843 5842 5840 5838 5837 5835 5834 5832 5831 5830 5829 5828 5827 5826 5825 5824 5823 5822 5821 5821 5820 5820 5820 5820 5820 5820
5857 5855 5853 5852 5850 5848 5847 5845 5843 5842 5840 5839 5838 5836 5834 5832 5831 5829 5828 5827 5825 5824 5823 5822 5821 5820 5819 5818 5817 5816 5815 5814 5814 5813 5813 5813 5813 5813
5852 5850 5848 5847 5845 5843 5841 5840 5838 5836 5834 5833 5831 5830 5828 5826 5824 5823 5822 5820 5819 5818 5817 5816 5814 5813 5812 5811 5810 5809 5808 5808 5807 5806 5806 5806 5806 5806
5847 5845 5843 5841 5839 5837 5836 5834 5832 5830 5828 5827 5825 5823 5822 5820 5818 5817 5815 5814 5813 5811 5810 5809 5808 5807 5805 5804 5804 5803 5802 5801 5800 5800 5799 5799 5799 5799
5841 5839 5837 5835 5833 5831 5829 5828 5826 5824 5822 5820 5819 5817 5815 5813 5812 5810 5809 5807 5806 5805 5803 5803 5801 5800 5798 5797 5796 5795 5794 5794 5793 5793 5792 5792 5792 5792
5835 5833 5831 5828 5826 5825 5823 5821 5819 5816 5815 5814 5812 5810 5808 5807 5805 5803 5802 5800 5799 5797 5796 5795 5794 5793 5792 5790 5789 5788 5787 5786 5786 5785 5785 5785 5785 5785
5829 5827 5824 5822 5820 5818 5816 5814 5812 5810 5807 5806 5804 5803 5801 5800 5798 5797 5795 5793 5792 5790 5788 5787 5786 5785 5784 5783 5781 5780 5780 5779 5778 5778 5777 5777 5777 5777
5822 5820 5817 5815 5813 5811 5809 5807 5805 5802 5800 5798 5796 5795 5794 5792 5791 5789 5787 5786 5784 5783 5781 5779 5778 5776 5775 5775 5774 5773 5772 5771 5770 5770 5770 5769 5769 5770
5816 5813 5810 5808 5806 5803 5801 5799 5797 5795 5793 5790 5788 5787 5786 5784 5783 5781 5779 5777 5776 5775 5773 5771 5769 5768 5767 5766 5765 5764 5763 5763 5762 5762 5761 5761 5761 5761
5808 5806 5803 5800 5798 5796 5793 5791 5789 5787 5784 5782 5781 5779 5777 5776 5774 5772 5770 5769 5767 5766 5764 5762 5761 5759 5758 5758 5757 5756 5755 5754 5754 5753 5753 5752 5753 5753
5800 5798 5795 5792 5790 5788 5786 5783 5781 5778 5776 5774 5772 5770 5769 5767 5765 5763 5762 5760 5758 5757 5755 5753 5752 5750 5749 5749 5749 5748 5748 5747 5746 5745 5744 5744 5744 5745
5791 5789 5786 5783 5782 5780 5777 5774 5772 5769 5767 5765 5763 5762 5760 5758 5756 5754 5753 5751 5749 5747 5746 5744 5743 5741 5740 5740 5740 5739 5739 5739 5738 5737 5736 5737 5737 5737
5783 5780 5778 5776 5773 5771 5768 5766 5763 5760 5758 5756 5754 5752 5750 5748 5746 5744 5743 5742 5741 5739 5737 5735 5734 5732 5732 5731 5730 5730 5730 5730 5730 5729 5729 5729 5729 5729
5774 5772 5769 5767 5765 5762 5759 5757 5754 5751 5749 5746 5744 5742 5740 5738 5736 5735 5733 5732 5731 5730 5728 5726 5725 5724 5723 5722 5722 5721 5721 5721 5721 5720 5720 5721 5721 5721
5764 5762 5760 5757 5755 5752 5750 5747 5745 5742 5739 5737 5734 5732 5730 5728 5726 5725 5723 5722 5721 5720 5719 5717 5716 5715 5714 5713 5713 5712 5712 5712 5712 5711 5711 5711 5712 5712
5755 5753 5750 5748 5745 5743 5740 5737 5735 5732 5729 5727 5724 5722 5720 5718 5716 5714 5713 5712 5710 5709 5708 5707 5706 5705 5704 5704 5703 5703 5702 5702 5702 5702 5702 5702 5703 5703
5745 5742 5740 5738 5735 5732 5730 5727 5725 5722 5719 5717 5714 5712 5710 5708 5706 5704 5702 5701 5700 5698 5697 5696 5695 5695 5694 5693 5693 5693 5692 5692 5692 5692 5692 5692 5693 5693
5735 5732 5730 5727 5725 5722 5719 5717 5714 5711 5709 5706 5704 5702 5699 5698 5696 5694 5692 5690 5689 5687 5686 5685 5684 5683 5682 5682 5683 5683 5682 5682 5682 5682 5682 5683 5683 5684
5724 5721 5719 5716 5714 5711 5708 5706 5703 5700 5697 5695 5693 5691 5689 5687 5685 5683 5681 5679 5678 5676 5675 5674 5673 5672 5671 5671 5671 5671 5671 5671 5671 5671 5672 5673 5673 5674
5712 5709 5707 5705 5702 5700 5697 5694 5691 5688 5686 5684 5682 5680 5677 5676 5674 5672 5670 5668 5667 5665 5664 5662 5661 5660 5660 5659 5659 5660 5660 5660 5660 5661 5661 5662 5662 5663